JST83 YPDN-WADD

Flight info

Callsign JST83
Flight time 2h 22m
Altitude 38000
Route JULIE Q320 IDOTO M766 GABIT
Aircraft A320/M-SDE3FGHIRWY/LB1

Departure

Time 2026-04-28 10:19
Airport Darwin International Airport / RAAF Darwin (YPDN)

Arrival

Time 2026-04-28 12:41
Airport Denpasar I Gusti Ngurah Rai International Airport (WADD)
Time Latitude Longitude Altitude Speed Heading
2026-04-28 10:00 -12.40883 130.87741 90 ft 0 kts 19°
2026-04-28 10:10 -12.40888 130.87739 90 ft 2 kts 19°
2026-04-28 10:11 -12.40906 130.87733 91 ft 3 kts 14°
2026-04-28 10:11 -12.40926 130.87729 91 ft 3 kts
2026-04-28 10:11 -12.40946 130.87729 90 ft 3 kts 341°
2026-04-28 10:11 -12.40959 130.87736 81 ft 2 kts 289°
2026-04-28 10:12 -12.40961 130.87741 79 ft 0 kts 280°
2026-04-28 10:13 -12.40961 130.87740 90 ft 0 kts 280°
2026-04-28 10:13 -12.40959 130.87733 91 ft 2 kts 280°
2026-04-28 10:13 -12.40955 130.87707 92 ft 5 kts 280°
2026-04-28 10:14 -12.40953 130.87680 91 ft 7 kts 266°
2026-04-28 10:14 -12.40970 130.87629 91 ft 9 kts 238°
2026-04-28 10:14 -12.41026 130.87591 92 ft 11 kts 198°
2026-04-28 10:14 -12.41083 130.87541 90 ft 12 kts 265°
2026-04-28 10:15 -12.41057 130.87450 90 ft 15 kts 290°
2026-04-28 10:15 -12.41008 130.87306 91 ft 17 kts 289°
2026-04-28 10:15 -12.40967 130.87184 92 ft 18 kts 289°
2026-04-28 10:15 -12.40948 130.87130 89 ft 10 kts 289°
2026-04-28 10:16 -12.40907 130.87060 88 ft 13 kts 310°
2026-04-28 10:16 -12.40891 130.86976 90 ft 13 kts 251°
2026-04-28 10:16 -12.40969 130.86935 91 ft 14 kts 183°
2026-04-28 10:16 -12.41053 130.86920 91 ft 8 kts 247°
2026-04-28 10:17 -12.41047 130.86855 90 ft 12 kts 288°
2026-04-28 10:17 -12.41000 130.86716 90 ft 23 kts 287°
2026-04-28 10:17 -12.40999 130.86570 91 ft 12 kts 254°
2026-04-28 10:17 -12.40966 130.86567 90 ft 9 kts 58°
2026-04-28 10:18 -12.40973 130.86633 92 ft 0 kts 109°
2026-04-28 10:18 -12.40996 130.86703 92 ft 38 kts 109°
2026-04-28 10:18 -12.41166 130.87206 91 ft 107 kts 109°
2026-04-28 10:18 -12.41469 130.88101 89 ft 157 kts 109°
2026-04-28 10:19 -12.41855 130.89245 455 ft 173 kts 108°
2026-04-28 10:19 -12.42248 130.90399 1241 ft 171 kts 108°
2026-04-28 10:19 -12.42631 130.91544 1967 ft 172 kts 109°
2026-04-28 10:19 -12.43041 130.92773 2398 ft 193 kts 109°
2026-04-28 10:20 -12.43500 130.94150 2799 ft 214 kts 109°
2026-04-28 10:20 -12.44004 130.95666 3337 ft 232 kts 109°
2026-04-28 10:20 -12.44531 130.97245 4159 ft 237 kts 110°
2026-04-28 10:20 -12.44907 130.98962 4757 ft 257 kts 94°
2026-04-28 10:21 -12.44648 131.00812 5516 ft 271 kts 72°
2026-04-28 10:21 -12.43684 131.02507 6258 ft 283 kts 47°
2026-04-28 10:21 -12.42090 131.03718 7007 ft 290 kts 23°
2026-04-28 10:21 -12.40120 131.04195 7695 ft 295 kts
2026-04-28 10:22 -12.38094 131.04189 7932 ft 295 kts 358°
2026-04-28 10:22 -12.36017 131.04141 8016 ft 294 kts 358°
2026-04-28 10:22 -12.34003 131.04061 8025 ft 293 kts 353°
2026-04-28 10:22 -12.32031 131.03571 8027 ft 292 kts 336°
2026-04-28 10:23 -12.30263 131.02564 8027 ft 290 kts 321°
2026-04-28 10:23 -12.28815 131.01141 8027 ft 289 kts 307°
2026-04-28 10:23 -12.27760 130.99406 8026 ft 287 kts 292°
2026-04-28 10:23 -12.27077 130.97483 8185 ft 292 kts 287°
2026-04-28 10:24 -12.26419 130.95520 9067 ft 292 kts 288°
2026-04-28 10:24 -12.25754 130.93541 9888 ft 296 kts 288°
2026-04-28 10:24 -12.25073 130.91513 10319 ft 312 kts 288°
2026-04-28 10:24 -12.24344 130.89336 10508 ft 335 kts 288°
2026-04-28 10:25 -12.23561 130.87006 10630 ft 357 kts 288°
2026-04-28 10:25 -12.22896 130.84490 10755 ft 376 kts 279°
2026-04-28 10:25 -12.22625 130.81779 10865 ft 392 kts 270°
2026-04-28 10:25 -12.22647 130.78948 11154 ft 402 kts 268°
2026-04-28 10:26 -12.22672 130.76114 11635 ft 406 kts 269°
2026-04-28 10:26 -12.22693 130.73210 12142 ft 410 kts 268°
2026-04-28 10:26 -12.22711 130.70280 12637 ft 414 kts 268°
2026-04-28 10:26 -12.22728 130.67317 13130 ft 418 kts 268°
2026-04-28 10:27 -12.22740 130.64332 13633 ft 422 kts 268°
2026-04-28 10:27 -12.22749 130.61314 14071 ft 425 kts 268°
2026-04-28 10:27 -12.22761 130.58277 14504 ft 429 kts 268°
2026-04-28 10:27 -12.22634 130.55223 14928 ft 433 kts 275°
2026-04-28 10:28 -12.22011 130.52197 15349 ft 438 kts 285°
2026-04-28 10:28 -12.20881 130.49322 15758 ft 443 kts 295°
2026-04-28 10:28 -12.19418 130.46532 16164 ft 446 kts 296°
2026-04-28 10:29 -12.16465 130.40898 16976 ft 453 kts 296°
2026-04-28 10:29 -12.14980 130.38046 17381 ft 456 kts 296°
2026-04-28 10:29 -12.13488 130.35173 17779 ft 459 kts 296°
2026-04-28 10:29 -12.11987 130.32284 18169 ft 462 kts 296°
2026-04-28 10:30 -12.10473 130.29375 18515 ft 464 kts 296°
2026-04-28 10:30 -12.08947 130.26451 18857 ft 467 kts 296°
2026-04-28 10:30 -12.07414 130.23515 19216 ft 469 kts 296°
2026-04-28 10:30 -12.05877 130.20572 19569 ft 471 kts 296°
2026-04-28 10:31 -12.04333 130.17612 19928 ft 473 kts 296°
2026-04-28 10:31 -12.02785 130.14643 20271 ft 475 kts 296°
2026-04-28 10:31 -12.01228 130.11662 20605 ft 477 kts 297°
2026-04-28 10:31 -11.99661 130.08666 20923 ft 479 kts 297°
2026-04-28 10:32 -11.98089 130.05659 21220 ft 481 kts 297°
2026-04-28 10:32 -11.96512 130.02641 21497 ft 483 kts 297°
2026-04-28 10:32 -11.94932 129.99613 21776 ft 484 kts 297°
2026-04-28 10:32 -11.93345 129.96574 22033 ft 486 kts 297°
2026-04-28 10:33 -11.91750 129.93526 22262 ft 487 kts 297°
2026-04-28 10:33 -11.90148 129.90470 22499 ft 489 kts 297°
2026-04-28 10:33 -11.88534 129.87398 22745 ft 491 kts 297°
2026-04-28 10:33 -11.86937 129.84360 22952 ft 493 kts 297°
2026-04-28 10:34 -11.85315 129.81273 23202 ft 494 kts 297°
2026-04-28 10:34 -11.83687 129.78173 23412 ft 497 kts 297°
2026-04-28 10:34 -11.82055 129.75058 23611 ft 499 kts 297°
2026-04-28 10:34 -11.80460 129.71911 23807 ft 499 kts 293°
2026-04-28 10:35 -11.79254 129.68596 24021 ft 499 kts 284°
2026-04-28 10:35 -11.78465 129.65152 24238 ft 499 kts 281°
2026-04-28 10:35 -11.77724 129.61693 24464 ft 500 kts 281°
2026-04-28 10:35 -11.76972 129.58226 24726 ft 500 kts 282°
2026-04-28 10:36 -11.76211 129.54773 25085 ft 498 kts 282°
2026-04-28 10:36 -11.75449 129.51337 25447 ft 496 kts 281°
2026-04-28 10:36 -11.74689 129.47910 25805 ft 494 kts 281°
2026-04-28 10:36 -11.73931 129.44488 26177 ft 493 kts 281°
2026-04-28 10:37 -11.73179 129.41087 26570 ft 491 kts 281°
2026-04-28 10:37 -11.72429 129.37689 26943 ft 490 kts 281°
2026-04-28 10:37 -11.71687 129.34303 27321 ft 488 kts 281°
2026-04-28 10:37 -11.70948 129.30925 27714 ft 487 kts 281°
2026-04-28 10:38 -11.70212 129.27561 28155 ft 485 kts 281°
2026-04-28 10:38 -11.69475 129.24209 28578 ft 483 kts 281°
2026-04-28 10:38 -11.68748 129.20914 29043 ft 481 kts 281°
2026-04-28 10:38 -11.68015 129.17590 29482 ft 480 kts 282°
2026-04-28 10:39 -11.67286 129.14271 29848 ft 480 kts 282°
2026-04-28 10:39 -11.66555 129.10949 30184 ft 480 kts 282°
2026-04-28 10:39 -11.65821 129.07626 30531 ft 479 kts 282°
2026-04-28 10:39 -11.65084 129.04310 30909 ft 478 kts 282°
2026-04-28 10:40 -11.64351 129.01010 31295 ft 476 kts 282°
2026-04-28 10:40 -11.63620 128.97717 31704 ft 475 kts 282°
2026-04-28 10:40 -11.62892 128.94437 32125 ft 473 kts 282°
2026-04-28 10:40 -11.62171 128.91172 32525 ft 472 kts 282°
2026-04-28 10:41 -11.61451 128.87912 32946 ft 470 kts 282°
2026-04-28 10:41 -11.60733 128.84664 33358 ft 469 kts 282°
2026-04-28 10:41 -11.60017 128.81423 33808 ft 467 kts 282°
2026-04-28 10:41 -11.59301 128.78194 34221 ft 466 kts 282°
2026-04-28 10:42 -11.58584 128.74980 34604 ft 464 kts 282°
2026-04-28 10:42 -11.57868 128.71773 35010 ft 463 kts 282°
2026-04-28 10:42 -11.57157 128.68581 35409 ft 461 kts 282°
2026-04-28 10:42 -11.56449 128.65394 35784 ft 460 kts 282°
2026-04-28 10:43 -11.55744 128.62212 36156 ft 459 kts 282°
2026-04-28 10:43 -11.55040 128.59041 36504 ft 459 kts 282°
2026-04-28 10:43 -11.54333 128.55875 36880 ft 457 kts 282°
2026-04-28 10:43 -11.53629 128.52718 37254 ft 456 kts 282°
2026-04-28 10:44 -11.52922 128.49569 37621 ft 455 kts 282°
2026-04-28 10:44 -11.52218 128.46423 37889 ft 454 kts 282°
2026-04-28 10:44 -11.51518 128.43283 37944 ft 454 kts 282°
2026-04-28 10:45 -11.50117 128.37007 37949 ft 453 kts 282°
2026-04-28 10:45 -11.48717 128.30730 37943 ft 453 kts 282°
2026-04-28 10:46 -11.47324 128.24465 37946 ft 453 kts 282°
2026-04-28 10:46 -11.45912 128.18208 37945 ft 453 kts 283°
2026-04-28 10:47 -11.44500 128.11952 37936 ft 453 kts 282°
2026-04-28 10:47 -11.43252 128.05658 37950 ft 453 kts 275°
2026-04-28 10:48 -11.43412 127.99249 37944 ft 453 kts 266°
2026-04-28 10:48 -11.43831 127.92842 37943 ft 453 kts 266°
2026-04-28 10:49 -11.44234 127.86431 37947 ft 453 kts 266°
2026-04-28 10:49 -11.44638 127.80016 37947 ft 453 kts 266°
2026-04-28 10:50 -11.45052 127.73651 37951 ft 453 kts 266°
2026-04-28 10:50 -11.45469 127.67236 37951 ft 453 kts 266°
2026-04-28 10:51 -11.45878 127.60826 37961 ft 453 kts 266°
2026-04-28 10:51 -11.46275 127.54413 37957 ft 453 kts 266°
2026-04-28 10:52 -11.46684 127.48008 37957 ft 453 kts 266°
2026-04-28 10:52 -11.47092 127.41605 37956 ft 452 kts 266°
2026-04-28 10:53 -11.47499 127.35211 37957 ft 452 kts 266°
2026-04-28 10:53 -11.47903 127.28817 37955 ft 452 kts 266°
2026-04-28 10:54 -11.48295 127.22427 37952 ft 452 kts 266°
2026-04-28 10:54 -11.48690 127.16037 37953 ft 451 kts 266°
2026-04-28 10:55 -11.49092 127.09649 37946 ft 452 kts 266°
2026-04-28 10:55 -11.49486 127.03259 37953 ft 451 kts 266°
2026-04-28 10:56 -11.49883 126.96879 37950 ft 451 kts 266°
2026-04-28 10:56 -11.50267 126.90533 37956 ft 451 kts 266°
2026-04-28 10:57 -11.50652 126.84148 37946 ft 452 kts 266°
2026-04-28 10:57 -11.51040 126.77760 37951 ft 451 kts 266°
2026-04-28 10:58 -11.51427 126.71363 37944 ft 452 kts 266°
2026-04-28 10:58 -11.51666 126.64964 37947 ft 452 kts 273°
2026-04-28 10:59 -11.50782 126.59718 37937 ft 453 kts 282°
2026-04-28 10:59 -11.49443 126.53437 37950 ft 454 kts 282°
2026-04-28 11:00 -11.48107 126.47146 37954 ft 454 kts 282°
2026-04-28 11:00 -11.46768 126.40851 37952 ft 454 kts 282°
2026-04-28 11:01 -11.45422 126.34546 37940 ft 455 kts 282°
2026-04-28 11:01 -11.44078 126.28273 37951 ft 456 kts 282°
2026-04-28 11:02 -11.42731 126.21964 37957 ft 456 kts 282°
2026-04-28 11:02 -11.41386 126.15654 37951 ft 456 kts 282°
2026-04-28 11:03 -11.40040 126.09331 37941 ft 457 kts 282°
2026-04-28 11:03 -11.38685 126.03008 37957 ft 457 kts 282°
2026-04-28 11:04 -11.37326 125.96691 37959 ft 456 kts 282°
2026-04-28 11:04 -11.35971 125.90376 37955 ft 456 kts 282°
2026-04-28 11:05 -11.34609 125.84057 37952 ft 456 kts 282°
2026-04-28 11:05 -11.33241 125.77732 37954 ft 456 kts 282°
2026-04-28 11:06 -11.31885 125.71421 37948 ft 456 kts 282°
2026-04-28 11:06 -11.30529 125.65106 37938 ft 456 kts 282°
2026-04-28 11:07 -11.29173 125.58824 37947 ft 457 kts 282°
2026-04-28 11:07 -11.27807 125.52497 37951 ft 457 kts 282°
2026-04-28 11:08 -11.26442 125.46181 37944 ft 457 kts 282°
2026-04-28 11:08 -11.25060 125.39816 37937 ft 457 kts 282°
2026-04-28 11:09 -11.23694 125.33486 37937 ft 458 kts 282°
2026-04-28 11:09 -11.22342 125.27194 37954 ft 457 kts 282°
2026-04-28 11:10 -11.20962 125.20862 37947 ft 457 kts 282°
2026-04-28 11:10 -11.19577 125.14534 37942 ft 458 kts 282°
2026-04-28 11:11 -11.18200 125.08205 37947 ft 458 kts 282°
2026-04-28 11:11 -11.16822 125.01868 37953 ft 458 kts 282°
2026-04-28 11:12 -11.15442 124.95538 37948 ft 458 kts 282°
2026-04-28 11:12 -11.14058 124.89204 37942 ft 458 kts 282°
2026-04-28 11:13 -11.12669 124.82871 37950 ft 458 kts 282°
2026-04-28 11:13 -11.11281 124.76537 37947 ft 458 kts 282°
2026-04-28 11:14 -11.09889 124.70202 37940 ft 458 kts 282°
2026-04-28 11:14 -11.08499 124.63865 37936 ft 459 kts 282°
2026-04-28 11:15 -11.07113 124.57521 37944 ft 459 kts 282°
2026-04-28 11:15 -11.05715 124.51184 37943 ft 459 kts 282°
2026-04-28 11:16 -11.04296 124.44892 37947 ft 459 kts 282°
2026-04-28 11:16 -11.02864 124.38552 37954 ft 460 kts 282°
2026-04-28 11:17 -11.01442 124.32208 37956 ft 459 kts 282°
2026-04-28 11:17 -11.00019 124.25873 37950 ft 459 kts 282°
2026-04-28 11:18 -10.98591 124.19543 37949 ft 459 kts 282°
2026-04-28 11:18 -10.97160 124.13206 37946 ft 459 kts 282°
2026-04-28 11:19 -10.95729 124.06875 37947 ft 459 kts 282°
2026-04-28 11:19 -10.94300 124.00542 37943 ft 459 kts 282°
2026-04-28 11:20 -10.92871 123.94210 37925 ft 460 kts 283°
2026-04-28 11:20 -10.91434 123.87867 37933 ft 460 kts 283°
2026-04-28 11:21 -10.89996 123.81523 37939 ft 460 kts 283°
2026-04-28 11:21 -10.88565 123.75184 37940 ft 460 kts 283°
2026-04-28 11:22 -10.87143 123.68882 37934 ft 460 kts 283°
2026-04-28 11:22 -10.85702 123.62541 37935 ft 460 kts 283°
2026-04-28 11:23 -10.84256 123.56206 37945 ft 459 kts 283°
2026-04-28 11:23 -10.82811 123.49879 37943 ft 459 kts 283°
2026-04-28 11:24 -10.81369 123.43544 37932 ft 460 kts 283°
2026-04-28 11:24 -10.79929 123.37208 37935 ft 460 kts 283°
2026-04-28 11:25 -10.78481 123.30874 37939 ft 459 kts 283°
2026-04-28 11:25 -10.77030 123.24549 37937 ft 459 kts 283°
2026-04-28 11:26 -10.75592 123.18257 37932 ft 460 kts 283°
2026-04-28 11:26 -10.74137 123.11882 37929 ft 460 kts 283°
2026-04-28 11:27 -10.72698 123.05579 37927 ft 460 kts 283°
2026-04-28 11:27 -10.71238 122.99232 37923 ft 461 kts 283°
2026-04-28 11:28 -10.69774 122.92880 37924 ft 462 kts 283°
2026-04-28 11:28 -10.68314 122.86518 37938 ft 462 kts 283°
2026-04-28 11:29 -10.66857 122.80169 37939 ft 461 kts 283°
2026-04-28 11:29 -10.65390 122.73824 37935 ft 461 kts 283°
2026-04-28 11:30 -10.63927 122.67476 37937 ft 461 kts 283°
2026-04-28 11:30 -10.61736 122.57965 37944 ft 460 kts 283°
2026-04-28 11:31 -10.60275 122.51630 37938 ft 460 kts 283°
2026-04-28 11:31 -10.58800 122.45289 37929 ft 461 kts 283°
2026-04-28 11:32 -10.57326 122.38953 37932 ft 461 kts 283°
2026-04-28 11:32 -10.55858 122.32619 37937 ft 460 kts 283°
2026-04-28 11:33 -10.54394 122.26295 37938 ft 460 kts 283°
2026-04-28 11:33 -10.52924 122.19966 37921 ft 460 kts 283°
2026-04-28 11:34 -10.51451 122.13625 37923 ft 461 kts 284°
2026-04-28 11:34 -10.49979 122.07275 37924 ft 462 kts 283°
2026-04-28 11:35 -10.48505 122.00926 37927 ft 462 kts 284°
2026-04-28 11:35 -10.47036 121.94610 37931 ft 462 kts 284°
2026-04-28 11:36 -10.45555 121.88266 37933 ft 461 kts 284°
2026-04-28 11:36 -10.44070 121.81929 37933 ft 461 kts 284°
2026-04-28 11:37 -10.42577 121.75595 37928 ft 461 kts 284°
2026-04-28 11:37 -10.41094 121.69260 37932 ft 461 kts 284°
2026-04-28 11:38 -10.39619 121.62930 37937 ft 460 kts 284°
2026-04-28 11:38 -10.38143 121.56607 37934 ft 460 kts 284°
2026-04-28 11:39 -10.36657 121.50287 37930 ft 460 kts 284°
2026-04-28 11:39 -10.35175 121.43970 37934 ft 459 kts 284°
2026-04-28 11:40 -10.33695 121.37656 37939 ft 459 kts 284°
2026-04-28 11:40 -10.32215 121.31363 37929 ft 458 kts 285°
2026-04-28 11:41 -10.30733 121.25100 37921 ft 459 kts 285°
2026-04-28 11:41 -10.29244 121.18789 37919 ft 460 kts 285°
2026-04-28 11:42 -10.27760 121.12467 37927 ft 460 kts 285°
2026-04-28 11:42 -10.26275 121.06147 37929 ft 460 kts 285°
2026-04-28 11:43 -10.25023 121.00857 37931 ft 460 kts 284°
2026-04-28 11:43 -10.23527 120.94527 37932 ft 461 kts 285°
2026-04-28 11:44 -10.22036 120.88246 37931 ft 460 kts 285°
2026-04-28 11:44 -10.20532 120.81932 37934 ft 460 kts 285°
2026-04-28 11:45 -10.19036 120.75616 37936 ft 460 kts 285°
2026-04-28 11:45 -10.17548 120.69303 37943 ft 460 kts 285°
2026-04-28 11:46 -10.17054 120.67211 37943 ft 460 kts 285°
2026-04-28 11:47 -10.16262 120.63898 37942 ft 460 kts 285°
2026-04-28 11:47 -10.14761 120.57628 37948 ft 460 kts 285°
2026-04-28 11:48 -10.13256 120.51309 37947 ft 460 kts 285°
2026-04-28 11:48 -10.11759 120.45001 37953 ft 460 kts 285°
2026-04-28 11:49 -10.10260 120.38697 37950 ft 460 kts 285°
2026-04-28 11:49 -10.08756 120.32388 37947 ft 460 kts 285°
2026-04-28 11:50 -10.07243 120.26069 37942 ft 461 kts 285°
2026-04-28 11:50 -10.05739 120.19780 37949 ft 461 kts 285°
2026-04-28 11:51 -10.04228 120.13455 37945 ft 461 kts 285°
2026-04-28 11:51 -10.02714 120.07124 37941 ft 462 kts 285°
2026-04-28 11:52 -10.01190 120.00782 37929 ft 463 kts 285°
2026-04-28 11:52 -9.99672 119.94432 37931 ft 463 kts 285°
2026-04-28 11:53 -9.98157 119.88073 37926 ft 464 kts 285°
2026-04-28 11:53 -9.96636 119.81709 37933 ft 464 kts 285°
2026-04-28 11:54 -9.95116 119.75347 37934 ft 464 kts 285°
2026-04-28 11:54 -9.93595 119.68983 37930 ft 464 kts 285°
2026-04-28 11:55 -9.92073 119.62609 37931 ft 464 kts 285°
2026-04-28 11:55 -9.90551 119.56246 37927 ft 464 kts 285°
2026-04-28 11:56 -9.89017 119.49879 37920 ft 465 kts 285°
2026-04-28 11:56 -9.87484 119.43506 37925 ft 465 kts 285°
2026-04-28 11:57 -9.85966 119.37163 37921 ft 466 kts 285°
2026-04-28 11:57 -9.84432 119.30761 37919 ft 466 kts 285°
2026-04-28 11:58 -9.82890 119.24367 37921 ft 467 kts 285°
2026-04-28 11:58 -9.81348 119.17976 37924 ft 467 kts 285°
2026-04-28 11:59 -9.79803 119.11579 37920 ft 467 kts 285°
2026-04-28 11:59 -9.78264 119.05182 37920 ft 467 kts 285°
2026-04-28 12:00 -9.76734 118.98822 37921 ft 467 kts 285°
2026-04-28 12:00 -9.75187 118.92429 37923 ft 467 kts 285°
2026-04-28 12:01 -9.73644 118.86035 37922 ft 466 kts 285°
2026-04-28 12:01 -9.72099 118.79642 37922 ft 466 kts 285°
2026-04-28 12:02 -9.70550 118.73256 37921 ft 466 kts 285°
2026-04-28 12:02 -9.68998 118.66877 37919 ft 466 kts 285°
2026-04-28 12:03 -9.67443 118.60494 37916 ft 466 kts 285°
2026-04-28 12:03 -9.65894 118.54108 37915 ft 467 kts 285°
2026-04-28 12:04 -9.64352 118.47753 37914 ft 467 kts 285°
2026-04-28 12:04 -9.62799 118.41360 37916 ft 467 kts 285°
2026-04-28 12:05 -9.61239 118.34957 37915 ft 467 kts 285°
2026-04-28 12:05 -9.59677 118.28569 37926 ft 466 kts 285°
2026-04-28 12:06 -9.58124 118.22195 37927 ft 465 kts 285°
2026-04-28 12:06 -9.56584 118.15877 37927 ft 464 kts 285°
2026-04-28 12:07 -9.55037 118.09528 37921 ft 464 kts 285°
2026-04-28 12:07 -9.53482 118.03180 37920 ft 463 kts 285°
2026-04-28 12:08 -9.51931 117.96840 37923 ft 462 kts 285°
2026-04-28 12:08 -9.51156 117.93678 37495 ft 462 kts 285°
2026-04-28 12:08 -9.50380 117.90518 36836 ft 462 kts 285°
2026-04-28 12:09 -9.49603 117.87347 36127 ft 464 kts 285°
2026-04-28 12:09 -9.48825 117.84161 35384 ft 466 kts 285°
2026-04-28 12:09 -9.48042 117.80964 34620 ft 469 kts 285°
2026-04-28 12:09 -9.47253 117.77748 33845 ft 473 kts 285°
2026-04-28 12:10 -9.46465 117.74544 32951 ft 476 kts 285°
2026-04-28 12:10 -9.45659 117.71279 32035 ft 479 kts 285°
2026-04-28 12:10 -9.44849 117.67999 31103 ft 482 kts 285°
2026-04-28 12:10 -9.44032 117.64690 30155 ft 486 kts 285°
2026-04-28 12:11 -9.43209 117.61353 29063 ft 489 kts 284°
2026-04-28 12:11 -9.42374 117.58004 27918 ft 492 kts 286°
2026-04-28 12:11 -9.41484 117.54642 26769 ft 495 kts 286°
2026-04-28 12:11 -9.40551 117.51279 25602 ft 498 kts 287°
2026-04-28 12:12 -9.39591 117.47896 24412 ft 501 kts 287°
2026-04-28 12:12 -9.38622 117.44506 23642 ft 503 kts 287°
2026-04-28 12:12 -9.37651 117.41100 23225 ft 505 kts 287°
2026-04-28 12:12 -9.36685 117.37680 22985 ft 503 kts 287°
2026-04-28 12:13 -9.35737 117.34281 22854 ft 501 kts 287°
2026-04-28 12:13 -9.34799 117.30888 22905 ft 500 kts 286°
2026-04-28 12:13 -9.33862 117.27496 22894 ft 500 kts 286°
2026-04-28 12:13 -9.32925 117.24106 22896 ft 500 kts 287°
2026-04-28 12:14 -9.31983 117.20715 22894 ft 500 kts 287°
2026-04-28 12:14 -9.31023 117.17332 22898 ft 501 kts 288°
2026-04-28 12:14 -9.30006 117.13955 22895 ft 502 kts 288°
2026-04-28 12:14 -9.29044 117.10555 22892 ft 502 kts 286°
2026-04-28 12:15 -9.28144 117.07186 22897 ft 503 kts 284°
2026-04-28 12:15 -9.27621 117.03687 22889 ft 503 kts 274°
2026-04-28 12:15 -9.27642 117.00145 22897 ft 504 kts 266°
2026-04-28 12:15 -9.28149 116.96629 22884 ft 505 kts 260°
2026-04-28 12:16 -9.28705 116.93127 22876 ft 504 kts 266°
2026-04-28 12:16 -9.28615 116.89591 22875 ft 502 kts 277°
2026-04-28 12:16 -9.28225 116.86075 22873 ft 502 kts 277°
2026-04-28 12:16 -9.27815 116.82560 22878 ft 502 kts 277°
2026-04-28 12:17 -9.27395 116.79044 22876 ft 502 kts 277°
2026-04-28 12:17 -9.26973 116.75536 22873 ft 502 kts 277°
2026-04-28 12:17 -9.26556 116.72075 22871 ft 501 kts 277°
2026-04-28 12:17 -9.26139 116.68575 22873 ft 502 kts 278°
2026-04-28 12:18 -9.25725 116.65067 22875 ft 502 kts 278°
2026-04-28 12:18 -9.25312 116.61559 22873 ft 501 kts 277°
2026-04-28 12:18 -9.24901 116.58054 22872 ft 501 kts 277°
2026-04-28 12:18 -9.24488 116.54547 22872 ft 501 kts 278°
2026-04-28 12:19 -9.24076 116.51044 22871 ft 501 kts 278°
2026-04-28 12:19 -9.23662 116.47548 22869 ft 500 kts 278°
2026-04-28 12:19 -9.23249 116.44056 22881 ft 500 kts 278°
2026-04-28 12:19 -9.22833 116.40564 22881 ft 500 kts 278°
2026-04-28 12:20 -9.22419 116.37075 22885 ft 499 kts 278°
2026-04-28 12:20 -9.22006 116.33583 22874 ft 499 kts 277°
2026-04-28 12:20 -9.21592 116.30093 22880 ft 499 kts 278°
2026-04-28 12:20 -9.21174 116.26605 22881 ft 499 kts 277°
2026-04-28 12:21 -9.20753 116.23119 22877 ft 499 kts 277°
2026-04-28 12:21 -9.20335 116.19631 22877 ft 499 kts 277°
2026-04-28 12:21 -9.19920 116.16138 22877 ft 499 kts 277°
2026-04-28 12:21 -9.19512 116.12697 22876 ft 499 kts 277°
2026-04-28 12:22 -9.19099 116.09205 22876 ft 499 kts 278°
2026-04-28 12:22 -9.18683 116.05719 22874 ft 499 kts 278°
2026-04-28 12:22 -9.18262 116.02233 22873 ft 499 kts 278°
2026-04-28 12:22 -9.17839 115.98749 22874 ft 499 kts 278°
2026-04-28 12:23 -9.17415 115.95262 22873 ft 499 kts 278°
2026-04-28 12:23 -9.16996 115.91786 22877 ft 498 kts 278°
2026-04-28 12:23 -9.16578 115.88303 22876 ft 498 kts 277°
2026-04-28 12:23 -9.16161 115.84830 22877 ft 498 kts 278°
2026-04-28 12:24 -9.15757 115.81349 22880 ft 498 kts 276°
2026-04-28 12:24 -9.15413 115.77868 22877 ft 497 kts 279°
2026-04-28 12:24 -9.14848 115.74416 22720 ft 495 kts 281°
2026-04-28 12:24 -9.14274 115.71003 21465 ft 492 kts 281°
2026-04-28 12:25 -9.13690 115.67577 20190 ft 492 kts 281°
2026-04-28 12:25 -9.13114 115.64233 19211 ft 486 kts 281°
2026-04-28 12:25 -9.12552 115.60962 18720 ft 456 kts 280°
2026-04-28 12:25 -9.12017 115.57844 17192 ft 445 kts 281°
2026-04-28 12:26 -9.11475 115.54746 15675 ft 449 kts 281°
2026-04-28 12:26 -9.10918 115.51611 14862 ft 454 kts 281°
2026-04-28 12:26 -9.10355 115.48470 14432 ft 454 kts 281°
2026-04-28 12:26 -9.09789 115.45330 14195 ft 453 kts 281°
2026-04-28 12:27 -9.09406 115.43213 14073 ft 450 kts 281°
2026-04-28 12:27 -9.08690 115.39247 13665 ft 423 kts 281°
2026-04-28 12:27 -9.08333 115.37278 13376 ft 420 kts 281°
2026-04-28 12:27 -9.07808 115.34380 12862 ft 418 kts 281°
2026-04-28 12:28 -9.07281 115.31467 12148 ft 425 kts 281°
2026-04-28 12:28 -9.06578 115.27568 11223 ft 424 kts 281°
2026-04-28 12:28 -9.06228 115.25622 10770 ft 421 kts 281°
2026-04-28 12:28 -9.05706 115.22729 10100 ft 410 kts 281°
2026-04-28 12:29 -9.04750 115.17398 8695 ft 364 kts 280°
2026-04-28 12:29 -9.04306 115.14934 7993 ft 349 kts 281°
2026-04-28 12:29 -9.03877 115.12560 7307 ft 337 kts 281°
2026-04-28 12:30 -9.03437 115.10268 6629 ft 327 kts 285°
2026-04-28 12:30 -9.02438 115.08257 6156 ft 316 kts 308°
2026-04-28 12:30 -9.01082 115.06522 5854 ft 310 kts 310°
2026-04-28 12:30 -8.99728 115.04846 5563 ft 305 kts 310°
2026-04-28 12:31 -8.98389 115.03206 5277 ft 300 kts 310°
2026-04-28 12:31 -8.97065 115.01589 4997 ft 296 kts 310°
2026-04-28 12:31 -8.95919 114.99885 4702 ft 293 kts 291°
2026-04-28 12:31 -8.95718 114.97877 4412 ft 289 kts 258°
2026-04-28 12:32 -8.96345 114.95968 4116 ft 284 kts 251°
2026-04-28 12:32 -8.96559 114.94003 3825 ft 283 kts 278°
2026-04-28 12:32 -8.95883 114.92171 3538 ft 279 kts 304°
2026-04-28 12:32 -8.94692 114.90644 3267 ft 274 kts 318°
2026-04-28 12:33 -8.93116 114.89601 3148 ft 270 kts 340°
2026-04-28 12:33 -8.91325 114.89258 3033 ft 257 kts
2026-04-28 12:33 -8.89594 114.89434 3013 ft 242 kts
2026-04-28 12:33 -8.87974 114.89623 3014 ft 228 kts
2026-04-28 12:34 -8.86396 114.89808 3016 ft 226 kts
2026-04-28 12:34 -8.84845 114.89991 3012 ft 219 kts
2026-04-28 12:34 -8.83387 114.90161 3011 ft 210 kts
2026-04-28 12:34 -8.81952 114.90327 3034 ft 206 kts
2026-04-28 12:35 -8.80534 114.90510 3026 ft 205 kts 13°
2026-04-28 12:35 -8.79184 114.90939 3012 ft 203 kts 26°
2026-04-28 12:35 -8.77980 114.91665 3013 ft 202 kts 39°
2026-04-28 12:35 -8.76982 114.92640 3013 ft 195 kts 52°
2026-04-28 12:36 -8.76262 114.93762 3011 ft 188 kts 65°
2026-04-28 12:36 -8.75807 114.94989 3011 ft 186 kts 76°
2026-04-28 12:36 -8.75632 114.96284 3027 ft 185 kts 88°
2026-04-28 12:36 -8.75581 114.97582 3017 ft 184 kts 88°
2026-04-28 12:37 -8.75529 114.98877 2988 ft 184 kts 88°
2026-04-28 12:37 -8.75482 115.00146 2821 ft 178 kts 89°
2026-04-28 12:37 -8.75436 115.01344 2623 ft 163 kts 87°
2026-04-28 12:37 -8.75391 115.02436 2420 ft 148 kts 88°
2026-04-28 12:38 -8.75349 115.03440 2251 ft 139 kts 88°
2026-04-28 12:38 -8.75313 115.04402 2077 ft 135 kts 88°
2026-04-28 12:38 -8.75276 115.05351 1904 ft 134 kts 88°
2026-04-28 12:38 -8.75239 115.06285 1732 ft 132 kts 89°
2026-04-28 12:39 -8.75204 115.07225 1561 ft 134 kts 87°
2026-04-28 12:39 -8.75167 115.08165 1390 ft 134 kts 88°
2026-04-28 12:39 -8.75132 115.09106 1219 ft 134 kts 89°
2026-04-28 12:39 -8.75096 115.10048 1043 ft 134 kts 89°
2026-04-28 12:40 -8.75056 115.10989 855 ft 135 kts 89°
2026-04-28 12:40 -8.75014 115.11938 702 ft 135 kts 90°
2026-04-28 12:40 -8.74982 115.12887 550 ft 137 kts 90°
2026-04-28 12:40 -8.74949 115.13834 372 ft 132 kts 90°
2026-04-28 12:41 -8.74914 115.14750 188 ft 130 kts 90°
2026-04-28 12:41 -8.74883 115.15661 42 ft 129 kts 90°
2026-04-28 12:41 -8.74856 115.16451 29 ft 81 kts 88°
2026-04-28 12:41 -8.74805 115.16765 27 ft 32 kts 60°
2026-04-28 12:42 -8.74741 115.16856 30 ft 8 kts 24°
2026-04-28 12:42 -8.74703 115.16864 31 ft 4 kts 15°
2026-04-28 12:42 -8.74677 115.16886 32 ft 6 kts 59°
2026-04-28 12:42 -8.74671 115.16938 32 ft 9 kts 86°
2026-04-28 12:43 -8.74667 115.17016 32 ft 12 kts 86°
2026-04-28 12:43 -8.74664 115.17068 32 ft 2 kts 86°
2026-04-28 12:43 -8.74653 115.17076 31 ft 1 kts
2026-04-28 12:43 -8.74585 115.17068 33 ft 10 kts 358°
2026-04-28 12:44 -8.74537 115.17066 33 ft 2 kts 358°
2026-04-28 12:44 -8.74533 115.17066 33 ft 0 kts 358°